Location: *
(46.0000°N, 117.0000°W)
Time: 04:00:24
(UTC+00:00)

Daily predictions for brighter satellites

Satellite Brightness Start Highest point End
(mag) Time Altitude Azimuth Time Altitude Azimuth Time Altitude Azimuth
ATLAS 2AS CENTAUR R/B 3.5 02:15:11 10° NNW 02:22:35 43° NE 02:29:27 10° ESE
Cosmos 2360 Rocket 2.2 02:21:18 10° NNW 02:26:59 85° ENE 02:32:39 10° SSE
Cosmos 1666 4.2 02:26:02 10° SSW 02:29:37 41° WNW 02:33:11 10° N
Cosmos 2184 Rocket 4.2 02:24:26 10° N 02:30:30 53° ENE 02:36:36 10° SSE
HJ-1C 3.9 02:27:30 10° SE 02:30:41 41° ENE 02:33:54 10° N
Cosmos 1536 Rocket 3.6 02:34:18 10° N 02:38:35 57° ENE 02:42:50 10° SSE
Ariane Rocket 3.0 02:33:54 10° SSE 02:38:56 78° ENE 02:44:02 10° NNW
FREGAT/IRIS 3.2 02:38:01 10° SE 02:40:35 32° ENE 02:43:09 10° N
Meteor 2-9 Rocket 4.4 02:35:56 10° S 02:41:34 54° E 02:47:06 10° NNE
Cosmos 405 3.1 02:39:21 10° NNW 02:42:52 76° W 02:46:21 10° S
SL-16 R/B 4.1 02:38:30 10° NW 02:43:30 32° WSW 02:48:28 10° SSW
Cosmos 1833 4.2 02:38:42 10° SSW 02:44:24 81° ESE 02:50:06 10° NNE
YAOGAN 1 3.9 02:40:40 10° S 02:44:47 44° W 02:48:57 10° NNW
COSMOS 2455 2.9 02:40:08 10° NNW 02:46:12 75° NE 02:52:12 10° SE
Cosmos 1441 Rocket 4.1 02:43:27 10° SSE 02:46:45 28° E 02:50:02 10° NNE
Cosmos 1025 Rocket 3.0 02:43:47 10° N 02:48:02 60° E 02:52:15 10° SSE
Cosmos 1939 Rocket 2.9 02:46:48 10° S 02:50:40 80° WSW 02:54:33 10° NNW
SJ-6B 3.6 02:47:08 10° SE 02:50:53 35° ENE 02:54:38 10° N
Cosmos 1544 3.8 02:47:41 10° SSE 02:50:53 31° E 02:54:07 10° NNE
SPOT 3 Rocket 4.0 02:47:09 10° SE 02:51:56 41° ENE 02:56:45 10° N
SAR-Lupe-2 3.7 02:51:49 10° NNE 02:55:21 52° E 02:58:50 10° S
MONITOR-E 3.9 02:53:55 10° SSE 02:56:44 87° W 02:59:33 10° NNW
ARGOS 3.9 02:54:39 10° SE 02:59:21 34° ENE 03:04:10 10° N
Timation 2 Rocket 4.0 02:54:23 10° SSW 03:00:56 66° ESE 03:07:16 10° NNE
Cosmos 2151 Rocket 3.7 02:57:35 10° SSW 03:02:00 80° W 03:06:26 10° N
Cosmos 2333 Rocket 2.3 02:57:07 10° NNW 03:02:45 59° ENE 03:08:00 12° SE
Cosmos 2327 Rocket 4.5 02:57:24 10° N 03:03:42 71° E 03:09:50 10° SSE
Cosmos 1707 3.5 03:02:06 10° N 03:05:41 33° ENE 03:08:04 18° SE
USA 186 2.0 03:02:38 10° SSE 03:05:50 53° ENE 03:09:11 10° N
Nadezhda 1 Rocket 3.9 03:00:15 10° S 03:06:12 62° E 03:12:13 10° NNE
Cosmos 1300 Rocket 4.2 03:09:03 10° SSW 03:13:18 59° W 03:17:35 10° N
Lacrosse 4 Rocket 4.1 03:14:37 10° WNW 03:17:15 17° WSW 03:19:52 10° SSW
Cosmos 2237 Rocket 3.0 03:14:22 10° NNW 03:19:35 35° NE 03:22:29 22° ESE
Cosmos 1378 4.5 03:16:19 10° NNW 03:19:53 41° W 03:23:25 10° SSW
MOS 1 4.5 03:14:13 10° S 03:19:55 76° WSW 03:25:38 10° NNW
Aureole 1 Rocket 3.3 03:15:20 10° NNW 03:21:01 84° WSW 03:24:53 12° SSE
Meteor 2-15 Rocket 4.4 03:17:13 10° S 03:23:22 85° E 03:29:33 10° N
H-2A R/B 2.0 03:20:21 16° SE 03:24:05 55° ENE 03:28:58 10° N
Cosmos 389 Rocket 3.2 03:21:58 10° N 03:25:05 31° ENE 03:25:22 30° E
SL-8 R/B 3.6 03:21:41 10° WSW 03:26:28 74° SSE 03:29:37 21° ENE
Cosmos 1980 4.2 03:22:44 10° NNW 03:28:06 42° NE 03:30:47 26° ESE
In-Cosmos 22 4.5 03:23:05 10° N 03:28:10 42° ENE 03:30:52 25° SE
NOSS 0 Rocket 4.0 03:23:58 10° NNW 03:30:07 60° ENE 03:33:52 24° SE
NOSS 3-4 (A) 3.9 03:23:15 10° NW 03:30:09 64° NE 03:34:58 24° ESE
NOSS 3-4 (C) 3.9 03:23:21 10° NW 03:30:14 64° NE 03:35:02 24° ESE
Cosmos 2251 Rocket 4.4 03:26:29 10° NNW 03:31:41 52° WSW 03:36:52 10° S
Meteor 1-4 Rocket 3.5 03:29:07 10° N 03:32:11 29° ENE 03:32:11 29° ENE
Cosmos 1455 Rocket 4.1 03:34:00 26° E 03:34:00 26° E 03:37:20 10° NNE
Cosmos 2341 Rocket 4.0 03:28:35 10° N 03:34:47 60° ENE 03:39:28 18° SSE
Cosmos 1461 2.7 03:31:36 10° SW 03:35:37 88° WNW 03:39:36 10° NE
NOSS 3-3 (A) 4.4 03:33:11 10° SW 03:39:07 65° NW 03:45:49 10° NE
NOSS 3-3 (C) 4.4 03:33:17 10° SW 03:39:13 65° NW 03:45:56 10° NE
Cosmos 2181 Rocket 4.2 03:34:24 12° SSE 03:39:46 46° E 03:45:44 10° NNE
Resurs 01 Rocket 2.0 03:40:11 36° ESE 03:41:24 45° ENE 03:45:39 10° N
Resurs 1-3 3.6 03:41:42 34° SE 03:43:28 62° ENE 03:47:49 10° N
SL-16 R/B 3.5 03:42:38 10° N 03:47:16 25° NE 03:48:41 23° ENE
Cosmos 1437 Rocket 4.3 03:44:40 10° NNE 03:46:52 21° NE 03:46:52 21° NE
Okean 1 Rocket 3.8 03:47:43 10° SSW 03:51:57 54° WNW 03:56:15 10° N
COSMOS 2428 3.2 03:48:02 10° NNW 03:53:38 59° WSW 03:57:46 18° S
USA 234 4.5 03:48:44 11° ENE 03:54:14 34° N 03:59:59 10° WNW
CZ-2C R/B 3.1 03:54:29 38° SE 03:56:24 64° ENE 04:01:47 10° N
Cosmos 1190 Rocket 4.1 03:52:13 10° NNW 03:57:30 60° ENE 03:58:55 44° ESE
Meteor 1-15 Rocket 4.2 03:52:24 10° S 03:58:06 76° E 04:03:57 10° NNE
Cosmos 2218 Rocket 4.1 03:52:42 10° N 03:59:00 56° ENE 04:01:21 37° SE
Cosmos 2219 Rocket 2.8 03:55:17 10° NW 04:00:43 53° WSW 04:04:34 19° S
Cosmos 405 Rocket 3.5 04:02:58 37° NNE 04:02:58 37° NNE 04:05:23 10° NNE
ASTEX 1 4.3 03:58:10 10° N 04:02:52 48° WNW 04:07:32 10° SSW
Cosmos 2366 rocket 4.0 04:01:27 10° N 04:07:46 61° ENE 04:09:47 42° SE
DMSP B5D2-2 4.1 04:07:10 10° NNE 04:12:23 56° E 04:12:44 54° ESE
ATLAS 2AS CENTAUR R/B 3.2 04:06:26 10° NW 04:13:55 59° WSW 04:17:48 28° S
ADEOS Rocket 3.5 04:06:48 10° NNE 04:14:00 86° WNW 04:21:43 10° SSW
Cosmos 1023 Rocket 4.4 04:09:18 10° NNW 04:14:27 64° ENE 04:14:59 60° E
Cosmos 864 Rocket 4.4 04:08:56 10° N 04:15:07 65° E 04:16:47 48° SE
Cosmos 2219 3.1 04:13:19 10° SSW 04:19:04 86° ESE 04:24:52 10° NNE
SL-8 Rocket 3.9 04:14:00 10° N 04:20:15 88° W 04:22:51 38° S
CZ-2C R/B 3.5 04:15:51 10° NNE 04:19:44 36° ENE 04:19:44 36° ENE
Okean 1-7 Rocket 3.9 04:18:12 10° NNW 04:22:35 61° W 04:23:32 48° SSW
Cosmos 2227 Rocket 2.5 04:24:02 46° ENE 04:24:02 46° ENE 04:28:22 10° NE
SPOT 1/Viking Rocket 4.5 04:23:26 33° NE 04:23:26 33° NE 04:27:29 10° N
Cosmos 2056 Rocket 3.4 04:20:49 35° S 04:23:12 77° ESE 04:28:38 10° NNE
Cosmos 1892 Rocket 4.1 04:22:59 10° NNW 04:27:22 56° W 04:28:14 47° SW
Cosmos 407 Rocket 3.7 04:27:19 10° NNW 04:32:25 63° WSW 04:33:16 54° SSW
Cosmos 2297 Rocket 2.1 04:34:39 68° ENE 04:34:39 68° ENE 04:39:52 10° NNE
Cosmos 1959 Rocket 4.4 04:29:41 10° N 04:35:49 82° W 04:37:31 51° S
Cosmos 1624 Rocket 3.9 04:34:00 40° SSW 04:35:55 82° WNW 04:41:10 10° NNE
BREEZE M DEB (TANK) 3.0 04:33:42 10° WNW 04:36:08 54° N 04:36:08 54° N
Meteor 1-24 Rocket 3.6 04:31:56 10° N 04:37:41 78° ENE 04:38:04 74° ESE
SPOT 5 4.3 04:39:20 26° NNE 04:39:20 26° NNE 04:42:12 10° N
ARGOS 4.4 04:36:10 18° SSW 04:39:33 36° W 04:44:30 10° NNW
MetOp-B 4.0 04:42:15 84° S 04:42:27 88° W 04:47:50 10° NNW
Cosmos 614 Rocket 4.5 04:39:16 10° NNW 04:44:20 53° WSW 04:45:01 49° SW
Meteor 2-5 Rocket 4.0 04:39:18 10° NNW 04:45:04 69° W 04:46:17 54° SSW
Cosmos 1674 4.4 04:41:26 10° NNW 04:43:26 30° NNW 04:43:26 30° NNW
Cosmos 2333 Rocket 4.2 04:42:11 10° NW 04:46:34 23° WSW 04:50:02 14° SW
Cosmos 1954 Rocket 4.1 04:47:09 10° NNW 04:51:55 73° NW 04:51:55 73° NW
Spot 2 Rocket 3.8 04:55:29 61° W 04:55:29 61° W 05:00:24 10° NNW
ERS-1 Rocket 3.7 05:00:22 45° NNE 05:00:22 45° NNE 05:03:57 10° N
USA 245 4.4 05:03:03 80° SW 05:03:18 82° WSW 05:09:26 10° NNW
Cosmos 2237 Rocket 3.0 04:58:23 10° NW 05:03:44 42° WSW 05:04:18 41° WSW
H-2A R/B 4.2 05:00:59 12° SW 05:03:54 19° W 05:07:26 10° NW
Cosmos 1140 Rocket 4.2 05:01:58 10° NNW 05:06:38 47° W 05:06:38 47° W
Meteor 1-22 Rocket 4.5 05:07:21 70° WSW 05:07:47 73° WNW 05:13:55 10° N
Resurs 01 Rocket 3.8 05:17:45 19° W 05:18:07 20° W 05:21:22 10° NW
Terra 3.6 05:28:41 27° N 05:28:41 27° N 05:30:54 10° N
SL-16 R/B 2.9 05:26:14 10° NNW 05:30:34 50° WNW 05:30:34 50° WNW
USA 234 3.8 05:36:04 49° NNE 05:36:25 49° NNE 05:42:40 10° NW
CZ-2C R/B 4.2 05:56:23 10° N 06:01:14 32° WNW 06:01:14 32° WNW
Cosmos 2227 Rocket 4.0 06:05:43 25° WNW 06:07:13 28° NW 06:12:04 10° N
Cosmos 2297 Rocket 4.3 06:16:17 17° W 06:18:50 23° NW 06:23:18 10° N
CZ-4C R/B 3.9 07:21:23 10° NNW 07:26:40 39° NNE 07:26:40 39° NNE
Cosmos 2263 Rocket 4.5 08:24:41 19° NNW 08:24:41 19° NNW 08:27:11 10° N
USA 267 4.3 08:21:34 10° NE 08:27:01 39° N 08:27:01 39° N
Cosmos 2278 Rocket 4.4 08:34:59 19° NE 08:34:59 19° NE 08:36:47 10° NE
Lacrosse 5 4.4 08:51:19 18° NNE 08:51:19 18° NNE 08:52:54 10° NE
Resurs 1-4 Rocket 4.2 08:51:14 10° NNE 08:53:24 22° NE 08:53:24 22° NE
ATLAS 5 CENTAUR R/B 4.2 09:19:22 19° NE 09:19:22 19° NE 09:20:48 10° NE
SL-16 R/B 3.5 09:18:19 41° N 09:18:19 41° N 09:22:16 10° NNW
CZ-2D R/B 3.7 09:17:24 10° NNE 09:20:13 30° NE 09:20:13 30° NE
Cosmos 2082 Rocket 4.0 09:28:03 10° NNW 09:30:16 24° NNW 09:30:16 24° NNW
Lacrosse 5 rocket 4.0 09:49:53 18° NE 09:49:53 18° NE 09:51:51 10° ENE
Cosmos 2369 Rocket 4.5 09:52:58 13° ESE 09:54:38 15° E 09:57:45 10° ENE
SJ 16-02 4.1 09:51:32 10° NNW 09:51:53 12° NNW 09:51:53 12° NNW
ARIANE 5 R/B 3.7 09:55:21 10° NNE 09:59:28 38° ENE 09:59:28 38° ENE
SME Rocket 4.2 09:52:42 10° NNE 09:59:38 69° NE 09:59:38 69° NE
Cosmos 1763 Rocket 4.3 10:05:31 49° NE 10:05:31 49° NE 10:09:24 10° NNE
Cosmos 2344 4.3 10:03:26 37° SE 10:04:58 41° ESE 10:12:14 10° NE
Cosmos 2278 Rocket 3.2 10:16:50 36° NNW 10:16:50 36° NNW 10:21:02 10° NNE
Cosmos 1814 Rocket 4.4 10:24:46 60° ENE 10:24:46 60° ENE 10:29:16 10° NNE
ADEOS II 2.2 10:22:57 10° NNE 10:27:57 69° ENE 10:27:57 69° ENE
CENTAUR R/B 4.1 10:26:15 19° SE 10:28:36 24° ESE 10:33:47 10° ENE
Cosmos 2142 Rocket 4.4 10:25:01 10° NNW 10:30:38 70° NW 10:30:38 70° NW
Lacrosse 5 3.9 10:30:30 18° NNW 10:32:36 24° N 10:36:43 10° ENE
CZ-2C R/B 4.4 10:29:27 10° NNE 10:32:34 34° ENE 10:32:34 34° ENE
Resurs 1-4 Rocket 3.3 10:31:03 10° N 10:34:28 31° NW 10:34:28 31° NW
USA 238 DEB 3.7 10:36:26 61° S 10:37:33 72° SE 10:44:27 10° NE
USA 238 3.7 10:36:32 60° S 10:37:40 72° SE 10:44:36 10° NE
Cosmos 2150 Rocket 4.1 10:33:06 10° NNW 10:38:36 76° ENE 10:39:55 52° SE
Cosmos 372 Rocket 4.2 10:34:40 10° NNW 10:39:55 68° ENE 10:41:50 38° SE
CZ-2D R/B 4.3 10:39:49 10° NNE 10:42:54 47° NE 10:42:54 47° NE
Cosmos 2208 Rocket 4.3 10:46:02 58° NW 10:46:02 58° NW 10:50:48 10° NNE
Cosmos 1943 Rocket 2.9 10:49:11 35° SSE 10:50:55 46° ESE 10:56:11 10° NE
Spot 4 Rocket 3.8 10:47:01 10° NNE 10:52:12 86° WNW 10:52:25 82° SW
Cosmos 841 Rocket 3.4 10:52:36 71° NW 10:52:36 71° NW 10:57:40 10° NNE
Cosmos 2298 Rocket 4.0 10:47:54 10° NNW 10:52:45 70° WNW 10:52:45 70° WNW
Meteor 1-26 Rocket 4.3 10:54:23 44° SSE 10:56:04 68° E 11:01:34 10° NNE
Cosmos 2180 Rocket 4.4 10:51:58 10° NNW 10:58:21 74° W 11:00:23 45° SSW
Cosmos 1606 3.6 10:59:35 43° N 10:59:35 43° N 11:02:18 10° N
SL-16 R/B 4.4 11:03:25 14° NW 11:03:25 14° NW 11:04:43 10° NW
SL-4 R/B 3.1 11:01:09 33° NNE 11:01:09 33° NNE 11:04:11 10° ENE
ATLAS 5 CENTAUR R/B 3.4 11:00:54 22° NW 11:01:18 22° NNW 11:05:12 10° NNE
IRIDIUM 104 4.2 11:01:04 66° SSW 11:01:48 83° W 11:07:04 10° N
IRS-1D 4.4 10:57:10 10° N 11:01:33 35° NW 11:01:33 35° NW
CZ-2D R/B 3.6 10:58:13 10° N 11:01:32 22° NW 11:01:32 22° NW
NOSS 3-3 (A) 4.4 11:02:30 10° NW 11:10:02 81° SW 11:18:18 10° SSE
NOSS 3-3 (C) 4.4 11:02:37 10° NW 11:10:08 82° SW 11:18:24 10° SSE
Cosmos 2279 Rocket 4.1 11:04:32 10° NNW 11:10:30 48° W 11:10:58 47° WSW
Cosmos 972 4.2 11:05:31 10° NNW 11:10:37 75° WSW 11:12:08 44° S
IRIDIUM 114 4.2 11:10:12 60° SW 11:10:58 69° W 11:16:12 10° N
USA 215 4.2 11:10:32 10° ENE 11:16:38 40° SE 11:20:43 20° S
Atlas Centaur 2 4.0 11:15:57 21° S 11:17:15 23° S 11:23:04 10° SE
ADEOS 4.2 11:14:03 10° NNE 11:19:10 54° E 11:23:33 14° S
Iridium 4 Rocket 4.3 11:15:30 10° SSE 11:19:55 43° E 11:24:03 10° NNE
IRIDIUM 103 4.3 11:19:21 51° WSW 11:20:09 58° W 11:25:20 10° N
Cosmos 2297 4.3 11:20:01 35° WNW 11:20:53 38° NW 11:26:11 10° NNE
Cosmos 1782 2.8 11:20:53 59° S 11:21:34 80° E 11:25:32 10° N
Cosmos 1092 Rocket 4.3 11:16:09 10° S 11:22:09 66° E 11:28:14 10° NNE
NOSS 3-2 (A) 3.4 11:21:55 43° WSW 11:23:58 74° NW 11:30:37 10° NE
NOSS 3-2 (C) 3.4 11:22:51 36° SSW 11:25:26 81° SE 11:32:02 10° NE
Cosmos 1869 Rocket 3.5 11:22:23 10° NNW 11:26:50 63° W 11:27:47 49° SSW
Unknown 3.6 11:27:49 50° NNW 11:27:51 50° NNW 11:31:18 10° NE
Lacrosse 5 rocket 1.8 11:25:35 20° NW 11:28:23 61° NE 11:32:45 10° ESE
Cosmos 1602 3.7 11:26:05 10° N 11:30:03 87° E 11:32:43 20° S
Meteor 1-28 Rocket 3.7 11:31:48 43° NW 11:31:48 43° NW 11:34:41 10° NNW
Cosmos 1400 Rocket 3.7 11:30:26 15° SSE 11:33:29 46° E 11:37:14 10° NNE
ATLAS 3B R/B 2.8 11:29:54 24° SSW 11:34:03 70° ESE 11:40:36 10° NE
Cosmos 2084 4.4 11:33:30 33° WNW 11:34:17 36° NW 11:38:24 10° NNE
PSLV R/B 3.9 11:31:43 10° SSE 11:35:52 82° ENE 11:40:01 10° NNW
Unknown 4.4 11:34:55 32° S 11:36:13 42° SE 11:40:09 10° ENE
Unknown 3.4 11:36:34 54° SSW 11:37:21 75° SE 11:41:15 10° ENE
Cosmos 2369 Rocket 2.1 11:34:47 29° SSW 11:37:51 86° WNW 11:43:34 10° NNE
SL-24 DEB 4.1 11:33:43 10° S 11:38:20 85° W 11:43:04 10° N
ARIANE 5 R/B 3.5 11:34:47 10° N 11:39:09 29° WNW 11:39:48 28° WNW
USA 102 4.1 11:35:28 10° NNE 11:40:05 81° WNW 11:41:26 48° SW
BREEZE-M DEB (TANK) 3.1 11:39:18 38° W 11:40:41 62° SSW 11:50:59 10° SE
Cosmos 2228 Rocket 4.3 11:41:01 26° WNW 11:41:01 26° WNW 11:44:34 10° NNW
Unknown 4.5 11:39:14 29° S 11:40:46 42° SE 11:44:42 10° ENE
Meteor 1-20 Rocket 4.4 11:36:20 10° NNW 11:41:29 43° W 11:44:10 25° SSW
Unknown 4.4 11:40:51 29° S 11:42:25 44° SE 11:46:23 10° ENE
COSMOS 2487 2.9 11:40:37 10° NNW 11:44:05 61° ENE 11:47:32 10° SSE
Unknown 4.2 11:42:38 31° SSW 11:44:13 49° SE 11:48:14 10° ENE
Nadezhda 4 Rocket 4.0 11:41:50 25° SW 11:45:24 56° WNW 11:51:26 10° N
Unknown 4.3 11:44:01 29° SSW 11:45:43 46° SE 11:49:43 10° ENE
Falcon 9 debris 4.2 11:45:52 30° NW 11:46:43 35° NNW 11:49:58 10° NE
Unknown 3.3 11:45:55 46° WSW 11:46:57 84° NW 11:50:49 10° ENE
Unknown 4.3 11:45:38 29° SSW 11:47:22 48° SE 11:51:23 10° ENE
Cosmos 540 Rocket 4.3 11:47:38 28° W 11:48:57 31° WNW 11:53:34 10° N
Cosmos 836 Rocket 4.4 11:47:05 25° SSW 11:50:07 72° WNW 11:55:20 10° NNE
Unknown 4.2 11:48:48 28° SSW 11:50:39 51° SE 11:54:41 10° ENE
USA 267 3.9 11:45:33 10° E 11:51:52 54° NNE 11:58:12 10° NW
Unknown 4.1 11:50:23 27° SSW 11:52:19 52° SE 11:56:21 10° ENE
Unknown 4.1 11:51:59 27° SSW 11:53:58 53° SE 11:58:01 10° ENE
Cosmos 1656 Rocket 4.3 11:48:27 10° S 11:54:00 58° ESE 11:59:34 10° NNE
Unknown 3.9 11:53:04 29° SSW 11:54:58 60° SE 11:59:01 10° ENE
Unknown 4.0 11:53:36 27° SSW 11:55:39 55° SE 11:59:43 10° ENE
